STARLINK-33792, 63506

Orbit data source: Space-Track

STARLINK-33792, 63506 is a payload satellite owned by SpaceX/Seattle (US) in LEO that was launched on Mon, 07 Apr 2025 UTC via an FALCON 9 launch vehicle from the Air Force Western Test Range (AFWTR). Payload-class satellites include a variety of spacecraft equipped with specific instruments for various scientific and technological missions. These include communications satellites like Starlink; space stations such as the ISS; scientific satellites like the Hubble; Earth observation satellites from companies like Planet Labs, Umbra, and HawkEye 360; GPS; miniature CubeSats for education and research; and military/defense satellites.

Loading next visibility...
Identifier
63506, 2025-071P
Orbit
LEO
Last TLE update
6 hours ago
Origin
Manufacturer
SpaceX/Seattle
Mission
Operational Commercial Communications
Bus & Motor
STARLINK V2MO, Unknown motor
Mass
575 kg wet, ~530 kg dry
Launch date (UTC)
2025-04-07 (3 months ago)
Launch vehicle
FALCON 9
Launch site
Air Force Western Test Range (AFWTR)
Object type
Payload
Rocket body
Debris
Shape & HBR
Box + 1 Pan, 29 m
Radar Cross Section
41.120 m², Large (>1 m²)

Expand to show TLE details & history

TLE from 6 hours ago
0 STARLINK-33792
1 63506U 25071P   25192.24730987  .00010205  00000-0  26482-3 0  9997
2 63506  53.1576 181.4257 0001257  84.0666 276.0482 15.39614824 15741
Epoch: 2025-07-11T05:56Z
TLE epoch observation values (Epoch: 2025-07-11T05:56:07.572Z)
Latitude
-0.00004°
Longitude
162.99214°
Altitude
448.06 km
Speed
7.645 km/s
True Right ascension
12h 05m 42s
True Declination
0° 00' 00"
Sunlit
Object was in daylight at epoch
Visualization orbit readout
Latitude
-35.55849°
Longitude
129.62489°
Altitude
459.145 km
Speed
7.637 km/s
Apparent Right ascension
10h 59m 24s
Apparent Declination
-38° 52' 14"
Sunlit
Object is in daylight
Visualization observer readout
Local Sidereal Time
00:16:06
Azimuth
92.12° ESE
Elevation
-75.174°
Doppler factor
1
Orbital elements
Apogee altitude
448.363 km
Perigee altitude
446.647 km
Semi-major axis
6,825.642 km
Eccentricity
0.00013
Inclination
53.1576°
RAAN
181.4257°
Arg. of periapsis
84.0666°
True anomaly
Unknown
Mean anomaly
276.0482°
Eccentric anomaly
Unknown
Mean motion
3.84882 °/min
Orbital period
93.54 mins
BSTAR
0.00026482
Loading maneuver chart data...
Loading SW <> Apogee altitude chart data...
Loading historical data...
Loading historical data...
Loading historical data...
Loading historical data...
Loading historical data...
Loading historical data...
Loading historical data...

STARLINK-33792 Visibility forecast

Observer location: undefined°, undefined°

Span
Click to sort rows by Start time (UTC) header in descending order
Start Az.
Max El. time (UTC)
Max El. Az.
Max El.
End time (UTC)
End Az.
4 mins2025-07-12 00:46:59.135Z164.24° S2025-07-12 00:48:59.135Z128.48° SE14.931°2025-07-12 00:50:59.135Z92.174° ESE
5 mins2025-07-12 02:23:59.135Z251.839° W2025-07-12 02:25:59.135Z324.034° NNW39.476°2025-07-12 02:28:59.135Z41.081° NE
4 mins2025-07-12 08:56:59.135Z299.241° NW2025-07-12 08:58:59.135Z167.467° S40.645°2025-07-12 09:00:59.135Z140.411° SSE
|